Other Surface Observations
Issued by NWS Charleston, SC

Home | Current Version | Previous Version | Text Only | Print | Product List | Glossary On
Versions: 1 2 3 4 5 6 7 8 9 10 11 12 13 14 15 16 17 18 19 20 21 22 23 24 25 26 27 28 29 30 31 32 33 34 35 36 37 38 39 40 41 42 43 44 45 46 47 48 49 50
000
SXUS52 KCHS 282025
OSOCHS

MARINE OBSERVATIONS
NATIONAL WEATHER SERVICE CHARLESTON SC
300 PM EST FRI NOV 28 2014

...DOWNTOWN CHARLESTON AND HARBOR...

CITY           SKY/WX    TMP DP  RH WIND       PRES   REMARKS
WATERFRONT PRK   N/A     48 N/A N/A N7          N/A
FORT JOHNSON   NOT AVBL

...LAKE MOULTRIE...

CITY           SKY/WX    TMP DP  RH WIND       PRES   REMARKS
PINOPOLIS        N/A     52  23  32 CALM      30.24F

...LAKE AND SUPPLEMENTAL COASTAL OBSERVATIONS...

STATION/POSITION TIME  TEMP    WIND        PRES    WAVE   SWELL
                       AIR SEA DIR/SP/G            HT/PER HT/PER/DIR
                 (UTC) (F)     (DEG/KT/KT) (MB)    (FT/S) (FT/S/D)
FORT PULASKI     2000   47      70/  5/  6 1026.8F
SAPELO ISLAND    2000   50      80/  5     1026.0F
UPR LAKE MARION  NOT AVBL
WINYAH BAY       2000   47      30/  2     1026.0S
LAKE MURRAY      2000   46     200/  4/  8 1026.1R
ACE BASIN NERRS  2000   48     170/  1     1026.0S


...C-MAN AND BUOY OBSERVATIONS...

STATION/POSITION TIME  TEMP    WIND        PRES    WAVE   SWELL
                       AIR SEA DIR/SP/G            HT/PER HT/PER/DIR
                 (UTC) (F)     (DEG/KT/KT) (MB)    (FT/S) (FT/S/D)
BUOY 41004       2000   47 72  350/ 14/ 17 1025.7F   5/ 6   3/ 7
BUOY 41008       2000   47 63   30/ 12/ 16 1026.4F   4/ 6   3/ 50/ 6
FOLLY BEACH CMAN 2000   48     350/  2/  3 1026.8F
CAPERS NS BUOY   1900   48      70/  4/  6   N/A
FRIPP NS BUOY    NOT AVBL
5E ST. MARYS GA  2000      61                N/A     3/ 6   2/110/14


STATION/POSITION TIME  TEMP    WIND        PRES    WAVE   SWELL
                       AIR SEA DIR/SP/G            HT/PER HT/PER/DIR
                 (UTC) (F)     (DEG/KT/KT) (MB)    (FT/S) (FT/S/D)
FRYING PAN BUOY  2000   45 68  360/ 12/ 16 1026.0F   4/ 6   3/ 40/ 6
BUOY 41025       2000   45     320/ 16/ 21 1024.1R   5/ 7   2/ 80/13
CAPE LOOKOUT NC  2000   43     360/  8/ 11 1025.3R
BUOY 41002       1920   59 72  330/ 17/ 25 1021.6R  10/ 8   5/ 30/13
BUOY 41010       2000   65 77  360/ 17/ 23 1021.9R   7/ 8   5/360/ 8
ST AUGUSTINE FL  2000   52     360/ 19/ 22 1026.4F


$$



USA.gov is the U.S. government's official web portal to all federal, state and local government web resources and services.